Location: Trebic
(49.2170°N, 15.8830°E)
Time: 07:40:47
(UTC+02:00)

Courier 1B Rocket - Pass Details

Date: 27 August 2019
Orbit: 920 x 1202 km, 28.2° (Epoch: 17 September)

Event Time Altitude Azimuth Distance (km) Brightness Sun altitude
Rises 05:02:30 0° 236° (WSW) 3,900 - -10.2°
Exits shadow 05:06:07 - 217° (SW) 3,137 7.1 -9.7°
Reaches altitude 10° 05:07:02 10° 211° (SSW) 3,004 7.0 -9.5°
Maximum altitude 05:10:10 13° 186° (S) 2,811 7.1 -9.1°
Drops below altitude 10° 05:13:23 10° 161° (SSE) 3,074 7.5 -8.6°
Sets 05:18:08 0° 136° (SE) 4,072 8.5 -7.9°
